Sheldon, IA

9:38 AM CST on November 23, 2017 (GMT -0600)
Sheldon Municipal

Weather History for KSHL - March, 2014

Change the Weather History Date:

Tuesday, March 4, 2014

  Actual Average Record
Temperature  
Mean Temperature 10 °F -  
Max Temperature 19 °F 39 °F 64 °F (1991)
Min Temperature 0 °F 19 °F -52 °F (1998)
Degree Days  
Heating Degree Days 56    
Moisture  
Dew Point 5 °F    
Average Humidity 73    
Maximum Humidity 86    
Minimum Humidity 63    
Precipitation  
Precipitation 0.00 in - - ()
Sea Level Pressure  
Sea Level Pressure 30.05 in    
Wind  
Wind Speed 9 mph (East)    
Max Wind Speed 17 mph    
Max Gust Speed 24 mph    
Visibility 10 miles    
Events      
Averages and records for this station are not official NWS values.
T = Trace of Precipitation, MM = Missing Value Source: NWS Daily Summary

Daily Weather History Graph

Daily Weather History Graph

Search for Another Location

Airport or City:

Trip Planner

Search our weather history database for the weather conditions in past years. The results will help you decide how hot, cold, wet, or windy it might be!

Date:

Astronomy

Mar. 04, 2014 Rise Set
Actual Time 6:54 AM CST 6:16 PM CST
Civil Twilight 6:25 AM CST 6:44 PM CST
Nautical Twilight 5:53 AM CST 7:17 PM CST
Astronomical Twilight 5:19 AM CST 7:50 PM CST
Moon 8:34 AM CST (3/4) 10:32 PM CST (3/4)
Length of Visible Light 12h 18m
Length of Day
11h 21m
Waxing Crescent, 15% of the Moon is Illuminated
Mar 4
Waxing Crescent
Mar 8
First Quarter
Mar 16
Full
Mar 23
Last Quarter
Mar 30
New

Hourly Weather History & Observations

Time (CST) Temp. Windchill Dew Point Humidity Pressure Visibility Wind Dir Wind Speed Gust Speed Precip Events Conditions
12:15 AM 6.8 °F -6.9 °F -0.4 °F 72% 30.07 in 10.0 mi SE 9.2 mph - N/A   Partly Cloudy
12:35 AM 6.8 °F -6.9 °F -0.4 °F 72% 30.06 in 10.0 mi SSE 9.2 mph - N/A   Clear
12:55 AM 6.8 °F -6.9 °F -0.4 °F 72% 30.05 in 10.0 mi SSE 9.2 mph - N/A   Clear
1:15 AM 6.8 °F -6.9 °F -0.4 °F 72% 30.04 in 10.0 mi SSE 9.2 mph - N/A   Partly Cloudy
1:35 AM 6.8 °F -5.9 °F -0.4 °F 72% 30.05 in 10.0 mi SSE 8.1 mph - N/A   Scattered Clouds
1:55 AM 6.8 °F -4.8 °F -0.4 °F 72% 30.05 in 10.0 mi SSE 6.9 mph - N/A   Partly Cloudy
2:15 AM 6.8 °F -4.8 °F -0.4 °F 72% 30.06 in 10.0 mi SSE 6.9 mph - N/A   Clear
2:35 AM 5.0 °F -6.9 °F -2.2 °F 72% 30.05 in 10.0 mi SSE 6.9 mph - N/A   Clear
2:55 AM 5.0 °F -6.9 °F -2.2 °F 72% 30.05 in 10.0 mi SE 6.9 mph - N/A   Clear
3:15 AM 5.0 °F -6.9 °F -2.2 °F 72% 30.04 in 10.0 mi SE 6.9 mph - N/A   Partly Cloudy
3:35 AM 3.2 °F -10.3 °F -2.2 °F 78% 30.03 in 10.0 mi SSE 8.1 mph - N/A   Partly Cloudy
3:55 AM 5.0 °F -8.1 °F -2.2 °F 72% 30.03 in 10.0 mi SSE 8.1 mph - N/A   Clear
4:15 AM 5.0 °F -5.6 °F -2.2 °F 72% 30.04 in 10.0 mi SSE 5.8 mph - N/A   Clear
4:35 AM 5.0 °F -6.9 °F -2.2 °F 72% 30.02 in 10.0 mi SSE 6.9 mph - N/A   Clear
4:55 AM 5.0 °F -4.1 °F -2.2 °F 72% 30.03 in 10.0 mi SSE 4.6 mph - N/A   Clear
5:15 AM 5.0 °F -4.1 °F -2.2 °F 72% 30.03 in 10.0 mi SSE 4.6 mph - N/A   Partly Cloudy
5:35 AM 3.2 °F -6.2 °F -4.0 °F 72% 30.03 in 10.0 mi SE 4.6 mph - N/A   Partly Cloudy
5:55 AM 1.4 °F -9.9 °F -5.8 °F 72% 30.03 in 10.0 mi ESE 5.8 mph - N/A   Clear
6:15 AM -0.4 °F -12.0 °F -5.8 °F 78% 30.03 in 10.0 mi ESE 5.8 mph - N/A   Clear
6:35 AM -0.4 °F -13.4 °F -5.8 °F 78% 30.03 in 10.0 mi ESE 6.9 mph - N/A   Partly Cloudy
6:55 AM -0.4 °F -13.4 °F -5.8 °F 78% 30.02 in 10.0 mi SE 6.9 mph - N/A   Clear
7:15 AM -0.4 °F -10.4 °F -5.8 °F 78% 30.04 in 10.0 mi SE 4.6 mph - N/A   Clear
7:35 AM 1.4 °F -9.9 °F -4.0 °F 78% 30.04 in 10.0 mi ESE 5.8 mph - N/A   Clear
7:55 AM 1.4 °F -8.3 °F -4.0 °F 78% 30.05 in 10.0 mi East 4.6 mph - N/A   Clear
8:15 AM 5.0 °F -5.6 °F -2.2 °F 72% 30.05 in 10.0 mi ENE 5.8 mph - N/A   Clear
8:35 AM 6.8 °F -0.1 °F -0.4 °F 72% 30.06 in 10.0 mi ENE 3.5 mph - N/A   Mostly Cloudy
8:55 AM 8.6 °F 0.1 °F 1.4 °F 73% 30.05 in 10.0 mi ESE 4.6 mph - N/A   Mostly Cloudy
9:15 AM 10.4 °F -0.4 °F 1.4 °F 67% 30.03 in 10.0 mi East 6.9 mph - N/A   Mostly Cloudy
9:35 AM 10.4 °F -0.4 °F 3.2 °F 73% 30.05 in 10.0 mi East 6.9 mph - N/A   Partly Cloudy
9:55 AM 12.2 °F 0.7 °F 3.2 °F 67% 30.05 in 10.0 mi East 8.1 mph - N/A   Partly Cloudy
10:15 AM 12.2 °F 2.9 °F 3.2 °F 67% 30.05 in 10.0 mi ESE 5.8 mph - N/A   Scattered Clouds
10:35 AM 12.2 °F 0.7 °F 5.0 °F 73% 30.05 in 10.0 mi East 8.1 mph - N/A   Overcast
10:55 AM 14.0 °F 3.9 °F 5.0 °F 67% 30.05 in 10.0 mi East 6.9 mph - N/A   Overcast
11:15 AM 14.0 °F 2.9 °F 5.0 °F 67% 30.06 in 10.0 mi ENE 8.1 mph - N/A   Mostly Cloudy
11:35 AM 15.8 °F 4.2 °F 6.8 °F 68% 30.04 in 10.0 mi East 9.2 mph - N/A   Mostly Cloudy
11:55 AM 15.8 °F 1.4 °F 6.8 °F 68% 30.03 in 10.0 mi East 13.8 mph - N/A   Mostly Cloudy
12:15 PM 15.8 °F 2.7 °F 6.8 °F 68% 30.03 in 10.0 mi East 11.5 mph - N/A   Mostly Cloudy
12:35 PM 15.8 °F 0.9 °F 6.8 °F 68% 30.01 in 10.0 mi East 15.0 mph - N/A   Mostly Cloudy
12:55 PM 15.8 °F 2.1 °F 8.6 °F 73% 30.02 in 10.0 mi East 12.7 mph - N/A   Mostly Cloudy
1:15 PM 17.6 °F 5.0 °F 8.6 °F 68% 30.02 in 10.0 mi East 11.5 mph - N/A   Mostly Cloudy
1:35 PM 17.6 °F 5.0 °F 8.6 °F 68% 30.01 in 10.0 mi East 11.5 mph - N/A   Scattered Clouds
1:55 PM 17.6 °F 2.2 °F 8.6 °F 68% 30.00 in 10.0 mi East 17.3 mph - N/A   Scattered Clouds
2:15 PM 17.6 °F 4.3 °F 8.6 °F 68% 30.02 in 10.0 mi East 12.7 mph - N/A   Mostly Cloudy
2:35 PM 17.6 °F 3.7 °F 8.6 °F 68% 30.01 in 10.0 mi East 13.8 mph - N/A   Scattered Clouds
2:55 PM 17.6 °F 3.7 °F 8.6 °F 68% 30.03 in 10.0 mi East 13.8 mph - N/A   Mostly Cloudy
3:15 PM 19.4 °F 7.9 °F 8.6 °F 63% 30.04 in 10.0 mi East 10.4 mph - N/A   Mostly Cloudy
3:35 PM 19.4 °F 5.5 °F 10.4 °F 68% 30.02 in 10.0 mi East 15.0 mph - N/A   Mostly Cloudy
3:55 PM 19.4 °F 6.0 °F 10.4 °F 68% 30.02 in 10.0 mi East 13.8 mph - N/A   Overcast
4:15 PM 19.4 °F 6.6 °F 10.4 °F 68% 30.03 in 10.0 mi East 12.7 mph - N/A   Mostly Cloudy
4:35 PM 17.6 °F 3.7 °F 8.6 °F 68% 30.03 in 10.0 mi East 13.8 mph - N/A   Mostly Cloudy
4:55 PM 17.6 °F 3.7 °F 10.4 °F 73% 30.02 in 10.0 mi East 13.8 mph - N/A   Overcast
5:15 PM 17.6 °F 3.7 °F 10.4 °F 73% 30.04 in 10.0 mi East 13.8 mph - N/A   Mostly Cloudy
5:35 PM 17.6 °F 4.3 °F 10.4 °F 73% 30.05 in 10.0 mi East 12.7 mph - N/A   Mostly Cloudy
5:55 PM 17.6 °F 5.0 °F 10.4 °F 73% 30.05 in 10.0 mi East 11.5 mph - N/A   Overcast
6:15 PM 17.6 °F 5.0 °F 10.4 °F 73% 30.06 in 10.0 mi ENE 11.5 mph - N/A   Overcast
6:35 PM 17.6 °F 2.2 °F 10.4 °F 73% 30.05 in 10.0 mi ENE 17.3 mph - N/A   Overcast
6:55 PM 17.6 °F 3.7 °F 10.4 °F 73% 30.05 in 10.0 mi ENE 13.8 mph 21.9 mph N/A   Overcast
7:15 PM 15.8 °F -0.2 °F 10.4 °F 79% 30.05 in 10.0 mi East 17.3 mph 24.2 mph N/A   Overcast
7:35 PM 17.6 °F 2.7 °F 10.4 °F 73% 30.06 in 10.0 mi East 16.1 mph - N/A   Overcast
7:55 PM 15.8 °F 0.9 °F 10.4 °F 79% 30.07 in 10.0 mi East 15.0 mph - N/A   Overcast
8:15 PM 15.8 °F 2.1 °F 10.4 °F 79% 30.09 in 10.0 mi East 12.7 mph 19.6 mph N/A   Overcast
8:35 PM 15.8 °F 2.1 °F 10.4 °F 79% 30.10 in 10.0 mi East 12.7 mph 19.6 mph N/A   Overcast
8:55 PM 15.8 °F 4.2 °F 10.4 °F 79% 30.11 in 10.0 mi East 9.2 mph - N/A   Overcast
9:15 PM 15.8 °F 3.4 °F 10.4 °F 79% 30.11 in 10.0 mi East 10.4 mph 16.1 mph N/A   Overcast
9:35 PM 15.8 °F 4.2 °F 10.4 °F 79% 30.13 in 10.0 mi ENE 9.2 mph - N/A   Overcast
9:55 PM 15.8 °F 0.9 °F 10.4 °F 79% 30.13 in 10.0 mi ENE 15.0 mph - N/A   Overcast
10:15 PM 15.8 °F 3.4 °F 10.4 °F 79% 30.14 in 10.0 mi ENE 10.4 mph 16.1 mph N/A   Overcast
10:35 PM 15.8 °F 1.4 °F 10.4 °F 79% 30.15 in 10.0 mi ENE 13.8 mph - N/A   Overcast
10:55 PM 15.8 °F 1.4 °F 12.2 °F 86% 30.15 in 10.0 mi ENE 13.8 mph - N/A   Overcast
11:15 PM 15.8 °F 1.4 °F 12.2 °F 86% 30.15 in 10.0 mi ENE 13.8 mph - N/A   Overcast
11:35 PM 15.8 °F 3.4 °F 12.2 °F 86% 30.16 in 10.0 mi ENE 10.4 mph 18.4 mph N/A   Overcast
11:55 PM 15.8 °F 1.4 °F 12.2 °F 86% 30.15 in 10.0 mi East 13.8 mph - N/A   Overcast